7 * 24
多渠道服务支持
STARLINK-37126(NORAD编号68520)是SpaceX星链星座中的一颗低轨互联网卫星。星链项目旨在构建全球卫星互联网,为偏远地区等提供宽带接入服务,该卫星遵循星链卫星典型设计,运行于近地轨道,承担网络信号转发任务。作为批量发射的星链卫星之一,它扩充了星座规模,提升了星座覆盖能力与服务容量,助力全球卫星互联网服务的推进,是SpaceX搭建全球卫星通信网络的组成单元。
美国
(US)
| 数据来源 | 国际轨道数据 |
| 星历时间: | 2026-09-12T18:45:29+0800 23小时前 查看轨道信息 |
| 半长轴: | 6840.785km |
| 偏心率: | 0.000114 |
| 轨道倾角: | 53.161° |
| 近地点辐角 | 91.431° |
| 升交点赤经 | 337.171° |
| 平近点角 | 268.682° |
| 近地点: | 461.868km |
| 远地点: | 463.428km |
| 周期: | 93.847分钟 |
| 每日圈数: | 15.344186 |